Location: Caltech
(34.1382°N, 118.1253°W)
Time: 22:34:44
(UTC-07:00)

Cosmos 1697 Rocket - Visible Passes

Search period start: 28 April 2017 00:00
Search period end: 08 May 2017 00:00
Orbit: 833 x 843 km, 71.0° (Epoch: 27 April)

Date Brightness Start Highest point End Pass type
(mag) Time Alt. Az. Time Alt. Az. Time Alt. Az.
28 Apr 3.5 04:31:11 10° N 04:36:40 53° ENE 04:42:07 10° SE visible
29 Apr 3.6 04:15:05 10° N 04:20:31 49° ENE 04:25:55 10° SE visible
30 Apr 3.8 03:58:59 10° N 04:04:22 45° ENE 04:09:41 10° SE visible
01 May 3.9 03:42:54 10° N 03:48:12 41° ENE 03:53:27 10° SE visible
01 May 3.8 05:27:38 10° NW 05:31:48 22° W 05:35:58 10° SSW visible
02 May 4.0 03:26:49 10° N 03:32:02 38° ENE 03:37:13 10° SE visible
02 May 3.7 05:11:20 10° NW 05:15:42 24° WSW 05:20:03 10° SSW visible
03 May 4.1 03:10:45 10° N 03:15:53 35° ENE 03:20:58 10° SE visible
03 May 3.6 04:55:04 10° NW 04:59:35 26° WSW 05:04:07 10° SSW visible
04 May 4.2 02:54:40 10° N 02:59:42 33° ENE 03:04:42 10° SE visible
04 May 3.5 04:38:47 10° NW 04:43:28 28° WSW 04:46:17 19° SW visible
05 May 4.3 02:38:37 10° N 02:43:32 30° ENE 02:46:33 19° ESE visible
05 May 3.4 04:22:32 10° NW 04:27:22 30° WSW 04:28:08 29° WSW visible
06 May 4.4 02:22:34 10° N 02:27:21 28° ENE 02:29:09 24° E visible
06 May 3.4 04:06:19 10° NW 04:10:47 32° W 04:10:47 32° W visible
07 May 4.4 02:06:30 10° N 02:11:11 26° ENE 02:12:10 25° ENE visible
07 May 3.6 03:50:05 10° NW 03:53:49 31° WNW 03:53:49 31° WNW visible
